Theta_e
319 320 320 320 321 321 321 321 321 322 322 323 322 322 323 323 323 323 323 323 323 323 323 323 324 324 324 324 325 324 323 325 322 317 314 316 328 332 332 336 336 332 328 320 316 314 311 312 311 313 313 313 314 310 318 313 313 312 304 302 299 302 301 305 303 303 306 303 305 305 306 305 302 306 307 307 306 306 307 307 309 311 311 312 313 314 318 319
319 319 319 320 320 320 321 321 321 321 322 322 322 322 322 322 322 322 322 322 322 323 323 324 324 324 324 324 324 324 323 326 318 315 316 329 334 335 335 337 336 332 327 316 313 312 310 310 311 311 312 309 317 310 313 310 313 306 304 303 299 303 304 308 306 306 304 304 306 306 307 306 304 306 307 304 304 305 305 307 309 309 311 312 313 313 314 315
319 319 319 319 319 320 321 321 321 321 321 321 321 321 321 321 322 322 322 322 322 323 323 323 324 324 323 324 324 323 323 323 321 316 314 334 331 336 337 337 332 328 320 315 314 314 311 311 312 310 311 308 311 307 310 309 309 308 304 300 303 307 307 308 308 306 307 307 305 305 306 306 306 306 308 303 303 305 303 304 306 307 308 310 312 312 313 313
318 319 319 318 319 320 321 321 321 320 321 321 321 321 321 321 321 322 322 321 321 322 323 323 323 323 323 323 324 323 328 324 310 311 320 336 335 336 339 336 332 328 322 317 316 315 313 312 311 310 309 306 309 310 307 309 305 308 305 301 303 306 305 307 308 308 308 307 305 305 306 305 306 307 307 305 302 303 305 307 307 307 308 309 311 311 312 312
318 318 319 318 319 320 320 320 320 320 320 320 321 321 320 321 321 321 321 321 321 322 322 322 323 323 323 324 322 325 324 308 308 318 329 335 339 338 339 336 333 321 319 316 315 314 312 310 310 309 308 304 307 307 306 308 310 309 305 307 306 306 305 308 308 308 307 307 305 305 303 304 308 306 305 304 301 301 304 307 308 308 309 309 309 310 312 311
318 318 318 318 319 319 320 320 320 320 320 320 320 320 320 320 320 321 320 320 321 321 322 322 322 323 323 323 324 326 315 296 310 321 333 338 339 339 337 334 330 321 317 314 313 312 310 309 308 305 305 304 303 303 306 307 311 301 304 305 307 307 304 307 308 307 306 306 305 304 306 307 306 305 307 306 304 306 309 309 309 309 310 311 311 311 310 311
318 318 318 318 318 319 319 319 319 320 320 321 320 320 320 320 320 321 320 320 321 321 321 322 322 322 322 322 323 316 309 309 314 335 335 338 338 337 335 331 326 318 315 313 312 310 310 308 307 305 304 304 304 303 305 306 310 304 300 304 305 308 306 308 307 307 306 305 304 306 308 304 304 301 307 305 307 309 311 311 311 311 311 311 310 310 310 310
319 319 318 318 318 318 319 319 319 320 320 321 320 320 321 321 321 320 320 321 320 321 321 321 321 322 321 321 318 311 309 308 316 327 332 337 336 331 327 322 317 317 314 312 311 309 309 306 305 307 304 301 303 303 305 304 306 303 301 304 305 306 307 307 306 306 307 306 307 307 304 303 305 304 305 304 307 308 309 311 311 311 311 310 310 310 310 310
320 319 318 318 319 319 318 318 319 320 320 321 321 321 321 321 321 321 321 320 321 320 320 320 320 322 321 319 312 304 305 316 315 334 339 334 330 325 321 317 317 314 313 313 313 312 310 307 307 307 302 302 306 303 304 302 299 303 304 305 305 305 306 307 306 306 306 306 306 303 302 304 305 306 303 305 306 308 309 309 309 309 309 308 309 309 309 309
320 318 318 318 320 319 318 318 319 320 320 321 321 321 321 321 321 321 320 320 320 320 319 320 320 320 315 316 309 301 317 315 329 335 334 329 325 321 318 319 316 315 312 312 313 311 309 308 308 310 308 305 306 302 304 303 300 303 303 303 302 303 303 304 303 304 305 305 305 301 301 302 305 303 299 306 307 308 308 308 308 307 307 308 308 308 309 309
319 318 318 319 319 318 318 318 318 319 320 320 320 321 321 321 321 320 320 320 320 319 320 320 321 315 317 311 304 303 317 324 329 329 327 324 321 318 317 319 316 314 313 314 312 312 312 311 313 310 307 303 304 303 303 303 304 303 303 302 301 302 303 304 304 304 305 302 304 303 301 303 303 302 300 304 307 308 306 306 307 307 307 307 308 308 310 309
318 319 319 319 318 318 318 318 318 319 320 320 320 320 321 321 320 320 319 319 319 320 320 320 319 320 315 308 304 308 314 324 327 326 324 322 320 320 321 317 316 317 314 311 312 316 316 314 312 307 301 306 301 303 302 303 302 302 301 297 299 301 300 303 302 303 304 302 303 303 299 298 300 298 303 306 308 307 307 306 306 306 306 307 308 308 308 308
319 319 320 320 318 318 318 318 319 319 319 319 320 320 320 320 320 319 319 319 319 319 319 320 319 320 317 305 311 315 319 321 324 323 322 322 318 317 317 317 315 315 315 314 313 317 315 312 311 306 308 305 303 299 302 302 302 302 301 298 298 298 298 303 305 303 302 302 302 301 291 297 301 305 307 308 307 307 305 305 305 306 306 307 307 307 307 308
320 320 320 320 319 318 318 319 319 319 319 319 320 320 320 320 319 319 318 318 319 320 320 321 321 318 312 306 308 314 316 321 320 319 319 319 316 317 317 316 314 313 315 313 311 312 311 311 310 308 308 303 301 306 302 302 302 297 300 300 295 295 296 303 302 301 299 302 301 301 292 296 301 304 307 307 305 305 303 304 304 305 305 306 307 307 307 308
320 320 321 320 319 319 319 320 320 319 319 320 320 320 320 319 319 318 319 320 319 319 320 320 320 317 305 307 308 313 318 315 313 315 317 313 313 312 312 314 314 313 312 311 310 309 310 310 309 304 302 306 305 301 298 298 300 300 295 294 298 295 298 302 303 301 298 300 301 299 293 295 300 303 306 307 307 305 303 303 304 305 305 305 306 306 307 307
320 320 321 321 320 319 320 320 320 321 321 320 320 319 320 318 317 319 319 321 318 320 320 318 316 313 305 302 311 316 314 309 310 314 315 314 315 310 314 312 311 310 310 308 310 309 309 309 304 303 303 303 300 298 297 297 298 300 296 295 295 298 298 299 304 303 303 300 299 299 294 297 298 303 304 305 304 304 303 303 304 304 305 305 306 306 307 307
320 320 320 320 320 320 320 320 319 320 321 320 319 320 318 317 318 319 319 320 320 320 322 311 311 309 302 308 309 308 306 312 310 315 312 313 312 314 311 309 307 307 308 308 308 308 307 304 305 302 303 300 301 300 294 294 294 297 300 295 298 296 298 296 302 304 303 300 297 299 294 295 298 301 302 303 304 303 302 302 303 304 304 305 306 306 306 306
321 321 321 320 321 321 320 320 320 321 321 321 319 319 318 319 318 318 317 319 321 319 317 315 312 309 304 309 304 305 307 308 314 309 312 311 313 310 309 306 307 307 306 304 306 303 305 301 302 298 301 299 299 297 292 290 295 295 296 296 297 299 298 297 296 301 301 300 297 298 297 297 300 302 302 303 304 303 302 303 303 304 304 305 305 306 306 306
321 321 321 321 322 321 320 320 321 321 321 321 321 314 319 319 321 321 314 313 314 309 304 303 304 300 301 304 307 308 311 309 312 313 308 310 311 310 309 309 308 305 302 301 301 303 303 303 302 298 296 298 297 297 296 297 299 297 297 296 296 294 295 296 300 303 301 298 296 297 295 296 298 299 301 302 303 303 303 304 303 304 305 305 306 306 306 307
322 321 322 322 321 321 320 321 321 321 321 320 323 316 315 317 315 307 310 310 307 308 309 308 308 308 308 310 308 310 312 313 307 309 310 311 309 307 306 307 307 305 303 300 301 301 305 297 295 295 298 301 302 302 300 301 300 299 298 296 295 295 296 299 300 302 300 296 296 296 296 296 297 299 300 301 303 302 302 302 303 304 305 306 306 306 306 306
322 322 322 321 321 321 321 322 322 321 320 322 319 317 310 308 306 306 307 311 314 314 312 312 312 311 310 308 310 309 307 305 308 308 311 311 309 307 303 304 302 299 301 303 302 301 301 296 297 300 301 302 302 301 300 299 299 297 296 295 294 296 294 298 298 302 299 295 294 297 296 296 297 299 301 303 302 301 302 303 304 304 305 305 305 304 304 304
321 322 322 322 321 322 322 322 321 321 319 320 318 312 309 309 309 311 307 306 313 314 313 312 312 308 312 311 309 311 307 305 306 307 310 311 306 303 303 302 300 299 302 301 300 297 295 294 298 301 303 303 301 300 300 298 296 297 295 295 294 295 298 299 300 300 297 296 294 296 294 295 297 300 302 303 302 303 304 304 304 304 304 304 304 302 302 302
321 321 321 322 321 322 322 322 321 319 321 320 316 312 310 309 311 311 308 306 304 313 310 310 306 306 308 309 307 308 304 302 303 306 305 309 304 303 303 300 300 300 300 300 296 297 294 297 300 303 303 300 300 299 298 298 297 295 295 293 292 296 294 292 298 297 299 296 294 295 293 295 298 301 302 303 303 304 305 305 305 304 303 302 300 300 300 299
321 321 321 321 321 322 322 322 321 322 320 316 315 312 312 311 312 309 307 304 304 310 310 309 307 307 306 305 307 306 304 305 305 304 309 307 303 306 303 301 300 300 298 299 299 297 297 302 302 301 300 299 297 299 297 296 294 298 297 295 294 295 296 295 295 297 297 298 297 295 294 295 300 299 299 302 304 305 305 304 304 304 304 302 302 301 300 298
320 320 320 321 320 321 321 320 321 321 317 315 315 313 311 313 312 312 305 304 304 304 309 307 307 307 305 310 308 303 306 306 304 305 308 307 304 301 301 305 302 298 299 301 300 298 297 303 301 299 299 298 297 295 297 297 294 295 298 297 297 297 295 295 296 294 292 293 293 294 288 290 297 298 298 301 303 302 304 302 300 300 300 300 298 298 299 299
320 320 320 320 320 321 321 318 321 318 318 317 315 314 311 311 313 310 305 299 296 305 304 302 310 301 309 301 306 304 305 300 302 304 306 307 306 303 301 299 301 297 300 300 298 299 299 299 299 298 298 298 297 296 298 298 294 293 294 298 297 295 295 294 294 293 288 287 294 296 287 285 296 296 299 301 301 301 302 300 298 298 298 298 298 298 297 297
320 320 320 320 321 320 318 315 319 319 316 316 316 313 311 311 313 309 301 297 294 306 302 301 303 303 306 302 303 304 295 297 303 304 305 306 303 307 298 299 298 299 299 300 297 295 299 297 297 297 296 296 296 294 298 298 295 292 297 297 296 294 294 294 293 292 291 296 296 295 293 288 288 295 300 300 299 300 300 298 297 297 297 297 297 296 296 296
317 319 319 320 321 319 321 321 320 317 316 316 316 312 312 311 310 309 299 287 288 306 300 300 302 307 306 301 303 298 296 300 298 299 303 305 303 301 299 299 298 298 297 298 289 299 297 295 296 296 295 295 295 297 300 299 295 294 296 296 295 294 294 294 293 292 292 291 287 292 294 288 288 295 299 299 296 297 298 297 296 296 296 296 296 296 296 296
313 315 316 318 320 320 322 321 319 316 316 316 313 312 311 310 308 302 297 285 304 301 307 298 307 302 301 301 299 298 298 298 295 299 304 303 304 301 297 299 300 298 298 298 294 298 297 297 299 298 296 294 298 296 298 298 294 298 296 297 296 296 295 294 291 291 291 288 285 290 293 287 288 295 296 297 296 296 297 295 295 296 296 296 295 296 296 295
312 313 314 316 319 318 318 319 318 318 317 315 313 311 309 307 303 295 291 282 304 295 301 301 299 298 300 297 297 299 296 297 299 300 302 300 302 303 298 299 297 297 296 297 297 298 297 296 297 296 296 298 295 294 296 297 295 296 296 295 295 296 294 294 292 290 288 284 287 293 293 291 285 293 295 295 296 298 298 294 295 295 296 295 295 295 295 295
311 311 312 316 317 319 319 314 318 317 316 314 312 311 312 309 298 291 284 294 300 301 299 299 297 300 297 296 296 297 297 297 297 299 297 299 298 300 298 296 300 296 294 294 293 297 296 295 294 297 299 297 298 295 294 296 296 296 294 293 292 292 294 290 289 291 284 284 291 294 293 293 283 290 295 298 297 297 297 296 295 294 294 294 294 294 294 294
309 310 311 314 321 322 314 313 313 313 312 311 312 312 310 295 300 287 288 301 291 298 298 297 298 298 297 298 297 297 296 297 298 297 297 297 297 295 295 294 297 290 291 292 292 295 293 294 297 299 297 297 295 294 294 295 295 294 293 291 287 286 288 284 288 282 285 285 288 290 292 288 288 292 295 298 298 298 296 297 296 295 293 294 293 293 294 294
308 308 309 311 314 317 318 313 313 312 311 310 312 312 300 292 283 294 293 298 293 302 297 301 297 296 298 297 297 298 297 297 298 297 299 299 297 299 301 298 301 296 288 294 293 292 295 299 297 298 296 297 298 291 293 291 292 292 290 290 286 283 283 280 283 286 286 288 289 289 292 286 291 294 298 298 297 296 296 296 296 295 294 293 293 293 292 293
307 308 310 314 316 319 314 312 312 312 311 311 310 304 297 286 286 299 298 298 298 299 300 297 295 297 296 296 300 299 296 300 297 296 297 297 296 295 298 299 299 297 296 293 289 291 286 288 294 295 294 298 296 296 298 297 294 293 297 294 289 288 284 279 282 280 282 285 289 291 286 284 285 290 298 297 294 295 295 295 295 294 293 293 293 292 292 291
306 307 309 312 314 318 313 313 312 314 316 313 306 298 287 287 292 292 293 297 301 299 297 299 298 296 297 297 299 298 299 296 299 297 296 295 294 295 295 297 298 298 297 290 294 291 291 290 297 299 297 297 296 299 300 298 295 296 296 296 290 288 293 284 286 285 285 285 285 286 285 291 291 297 296 296 294 294 294 293 293 292 292 292 291 290 290 290
306 310 311 311 314 317 314 312 312 315 316 309 299 291 287 292 290 296 295 302 301 298 298 298 300 296 295 296 299 298 302 296 297 296 297 296 298 295 300 299 297 297 295 290 294 288 292 289 295 297 294 296 298 299 298 300 287 292 292 287 291 298 294 288 288 290 288 285 282 289 288 292 297 297 297 293 293 291 292 292 291 291 291 291 289 289 289 289
307 312 307 311 312 317 315 313 313 315 313 304 296 288 295 297 300 300 302 298 300 301 299 292 294 295 294 293 295 297 297 298 297 296 292 298 294 298 297 299 301 299 299 298 294 299 289 290 298 296 295 295 294 296 297 298 300 294 287 293 296 297 296 290 282 285 283 280 281 288 284 286 287 284 295 293 291 290 290 290 290 290 290 289 288 288 288 288
306 307 309 309 314 317 316 314 314 313 307 300 293 293 301 295 303 300 304 300 298 300 295 294 294 298 292 293 293 296 297 294 295 295 292 296 291 301 297 297 299 298 299 301 294 295 297 287 294 297 298 294 294 295 294 298 298 295 293 298 289 285 284 289 285 277 278 277 280 284 287 286 288 288 293 292 290 290 289 290 289 288 288 288 288 288 288 288
307 307 302 309 318 316 313 314 313 307 301 295 293 291 298 299 303 302 302 301 302 299 294 296 293 297 296 292 295 296 297 291 295 294 290 294 290 298 297 299 297 295 297 298 295 296 296 286 289 298 295 295 294 295 287 292 295 296 296 292 298 292 287 285 286 286 284 278 279 279 284 282 291 292 294 294 293 290 290 289 288 287 287 287 287 287 287 287
303 301 301 312 315 315 313 314 308 304 298 291 294 294 304 298 301 301 301 301 300 297 296 295 297 293 296 296 298 293 297 295 294 294 294 297 293 299 296 301 297 296 296 296 295 298 291 295 283 292 294 295 287 293 289 292 289 289 289 288 291 288 292 292 290 286 283 280 280 279 278 284 291 295 294 292 292 292 291 289 288 287 286 287 287 287 287 286
307 302 302 311 314 315 314 309 302 297 296 298 299 297 299 297 300 299 300 301 303 302 299 298 297 294 295 295 295 298 295 295 295 293 294 295 294 289 299 296 298 295 296 295 294 295 288 290 285 289 289 289 291 297 296 295 294 293 291 288 290 287 285 281 279 291 286 283 279 279 277 285 293 293 294 293 293 293 292 289 287 287 286 287 287 286 287 287
300 293 299 311 314 314 307 298 299 303 299 294 294 298 297 303 299 299 299 301 302 300 302 299 299 298 297 296 296 296 295 293 294 293 294 292 296 295 298 298 298 299 295 291 294 298 294 292 288 285 288 289 293 296 299 296 297 295 294 290 293 291 290 285 278 281 286 286 287 284 281 282 290 291 292 292 291 291 290 289 287 287 287 287 287 287 287 287
299 295 306 310 313 312 304 297 300 298 296 299 304 302 303 300 300 301 299 300 297 301 298 298 297 297 298 296 296 295 296 291 294 292 294 295 296 297 299 298 300 298 298 294 297 297 294 287 285 286 290 293 295 297 298 298 296 293 293 294 292 288 290 287 286 286 283 284 283 282 279 284 289 291 290 291 290 290 290 290 288 288 287 287 287 287 287 287
300 301 302 309 313 311 301 290 291 294 297 301 300 300 304 301 300 297 298 299 298 297 296 296 298 299 296 299 296 293 296 287 293 294 292 296 293 299 299 298 300 297 297 294 291 295 287 288 288 282 282 284 288 292 292 294 293 291 290 292 293 293 293 291 289 288 280 283 283 281 275 282 290 288 289 289 289 288 289 289 289 288 288 287 287 286 286 286
300 302 301 303 308 305 296 299 296 295 296 295 296 295 297 299 301 301 299 297 300 299 297 296 297 298 297 298 296 296 295 293 288 295 295 295 294 299 298 299 298 296 298 297 294 296 289 286 285 278 276 274 275 277 281 283 285 289 291 290 291 290 290 287 282 284 280 283 285 281 280 287 290 290 289 289 288 288 289 288 287 289 287 287 286 286 285 285
295 289 298 298 302 300 301 303 300 298 295 295 293 295 297 295 298 300 300 298 300 299 298 298 297 296 295 294 292 292 292 293 292 289 291 291 294 296 296 296 296 297 295 293 290 295 287 287 286 283 280 279 281 284 289 289 286 282 286 288 289 291 290 289 287 283 279 282 282 283 284 285 286 290 290 291 288 288 286 285 285 285 287 287 287 286 285 285
296 290 293 290 298 297 296 299 298 299 294 298 290 295 293 294 296 296 301 293 299 297 297 296 295 293 292 293 290 291 292 291 294 292 291 291 294 294 297 297 295 292 291 292 293 291 286 284 285 286 285 285 286 286 288 288 284 284 284 284 287 287 287 285 283 280 286 282 276 284 286 283 285 288 289 290 290 290 290 288 287 287 287 286 286 286 286 285
287 291 297 298 294 289 290 291 296 296 298 297 293 296 293 292 293 290 296 298 298 299 292 294 295 294 293 291 291 286 289 289 289 287 291 291 291 293 292 296 293 292 291 293 296 289 284 280 284 284 283 285 286 285 286 286 286 285 285 285 284 286 286 283 283 285 285 280 277 283 285 283 285 287 289 290 290 291 292 291 290 289 288 287 286 285 284 284
291 292 293 296 291 295 295 295 297 296 295 296 293 294 291 291 289 292 292 292 294 293 295 286 289 292 293 293 291 287 288 283 284 289 288 287 288 288 287 289 292 291 292 290 291 291 286 282 284 285 283 284 285 286 287 285 284 285 284 285 285 285 284 285 284 285 285 283 284 284 284 284 286 287 288 289 291 289 289 291 289 288 287 286 285 284 284 284
286 288 287 292 293 290 291 294 295 295 291 294 289 292 293 290 289 291 293 292 287 290 296 290 290 293 292 290 292 288 289 290 288 285 288 287 286 288 286 287 287 289 289 286 289 290 286 280 285 283 280 280 283 284 284 284 284 282 284 285 285 285 285 285 285 285 285 283 284 284 283 282 287 290 289 289 289 289 288 287 287 287 286 286 285 285 284 284
292 292 294 290 287 288 288 291 292 291 289 290 289 291 292 291 289 291 290 294 292 288 290 289 291 287 286 287 290 290 293 288 287 287 288 288 284 289 285 285 287 283 286 285 287 286 286 281 285 282 278 277 282 282 283 282 281 280 279 281 282 283 281 283 282 285 283 281 282 282 280 280 286 288 287 287 286 286 285 285 285 285 285 285 284 284 285 284
292 294 294 292 286 290 286 290 290 290 285 290 291 290 290 290 292 291 287 292 290 293 293 292 291 290 288 287 287 289 290 288 288 289 290 289 289 289 290 289 289 286 284 284 287 283 284 282 279 279 276 275 280 281 279 278 277 274 276 280 282 283 284 284 285 285 284 284 280 278 279 283 283 286 284 285 284 284 283 284 283 284 284 283 283 283 284 285
Wind_Speed
9 9 8 8 9 9 9 9 9 9 9 10 10 10 10 10 11 11 11 11 11 12 11 12 12 11 12 11 11 10 12 6 4 6 6 4 8 10 8 10 10 11 9 7 8 8 7 7 6 6 5 4 3 5 4 4 3 4 5 6 7 7 8 4 7 6 5 7 9 6 2 7 11 5 2 3 9 12 14 14 13 12 14 15 14 12 2 6
8 8 9 9 9 8 9 9 9 10 10 10 11 11 11 11 11 11 11 11 11 12 12 12 12 12 12 12 12 11 10 5 7 8 14 6 11 8 7 10 11 12 11 8 9 9 6 7 7 7 5 5 4 2 4 3 5 6 6 7 8 6 6 3 6 8 9 9 9 10 9 8 11 7 6 9 11 11 14 14 13 13 14 16 16 15 12 7
7 7 8 8 8 8 8 9 9 10 11 11 11 11 11 11 11 12 12 12 12 12 12 12 12 12 13 12 11 12 6 5 7 10 1 6 11 8 6 11 13 13 11 9 8 7 6 4 6 7 6 6 6 4 5 4 6 8 7 9 9 8 11 8 7 10 9 11 11 10 10 10 10 10 7 10 14 11 13 12 12 13 12 10 10 9 10 13
7 7 7 7 7 8 9 9 9 10 10 11 11 11 11 11 11 11 11 12 12 12 12 12 12 12 12 13 11 7 5 6 7 5 4 4 6 8 7 12 12 12 10 6 6 6 3 2 5 7 5 6 3 4 5 5 4 4 8 8 7 6 7 7 7 9 10 10 10 11 11 13 12 11 8 8 11 11 13 13 13 14 12 12 12 12 11 8
6 7 7 7 8 9 9 9 9 10 10 10 11 11 11 11 11 11 11 11 12 12 12 12 12 13 13 13 13 5 6 9 3 4 6 4 6 7 8 12 11 11 8 3 3 4 5 5 5 6 6 6 7 5 10 7 9 4 10 11 12 11 10 11 11 10 7 3 8 11 13 13 7 5 11 12 14 11 11 12 16 18 17 16 15 13 10 10
6 6 7 7 8 9 10 9 9 9 10 11 10 11 11 11 11 12 12 12 12 12 13 12 13 13 14 14 10 5 4 5 3 3 2 6 6 7 9 10 11 9 6 6 6 5 6 6 6 6 5 8 9 8 5 9 7 8 10 13 14 14 15 10 10 3 1 9 10 11 11 11 12 13 12 14 16 15 16 17 19 19 18 17 14 13 13 12
5 6 7 7 7 8 9 9 9 10 10 11 11 11 11 11 11 12 12 12 12 12 13 12 12 14 15 15 6 5 7 8 4 4 5 5 7 9 9 9 7 7 8 8 7 6 8 7 8 8 8 9 11 11 11 5 5 9 12 11 12 8 12 12 12 1 5 10 13 12 13 15 15 17 12 15 15 16 17 19 20 19 17 16 15 12 13 14
3 3 5 7 7 8 9 9 9 10 11 11 11 12 12 12 12 12 12 12 12 12 12 12 11 12 13 7 4 5 6 8 4 2 5 7 9 10 10 9 10 7 9 10 8 8 6 9 9 6 9 9 6 4 3 6 9 9 11 10 12 10 11 11 11 12 10 12 12 12 14 18 17 16 15 21 20 18 18 18 18 17 16 14 14 13 13 14
3 3 6 6 7 8 9 9 10 10 11 12 12 12 12 12 12 12 12 12 12 12 11 10 11 10 8 5 4 7 10 2 3 6 8 8 9 11 11 8 10 10 9 8 8 6 6 7 9 8 8 8 4 8 6 5 10 8 12 12 12 11 9 11 12 11 11 10 9 12 17 18 17 17 18 21 21 20 18 18 17 15 14 14 13 14 14 14
3 4 5 6 7 7 8 9 9 10 11 12 12 13 13 13 12 13 12 12 12 11 10 9 9 9 6 3 5 8 1 2 2 3 5 7 9 10 11 5 11 10 9 9 7 7 9 5 5 5 6 11 11 10 8 7 8 4 9 9 12 14 15 14 16 16 14 13 10 11 17 18 15 10 12 9 11 8 9 11 11 13 15 15 14 13 14 14
4 4 5 7 7 8 9 9 9 10 11 12 12 13 13 13 14 13 13 13 12 11 9 8 4 5 4 3 7 10 3 2 2 4 5 6 9 9 9 5 10 9 10 6 9 9 7 6 1 1 2 7 3 7 5 5 6 9 10 13 16 16 16 16 16 16 11 11 10 13 17 17 16 11 16 16 15 11 10 12 12 13 15 15 16 16 13 14
3 4 5 6 7 8 9 9 10 11 12 12 13 13 13 14 14 14 13 12 11 9 8 6 4 3 4 7 9 7 4 4 2 3 5 5 4 3 4 2 7 7 8 8 8 7 0 2 4 6 6 7 7 5 5 4 5 6 7 11 14 14 15 16 17 16 12 9 3 4 11 16 14 12 18 17 12 11 13 12 13 14 15 16 16 14 13 13
5 5 5 6 8 8 9 10 11 12 13 13 13 14 14 14 14 13 11 9 6 5 2 3 3 3 3 9 7 4 3 3 4 4 4 3 4 3 3 3 3 3 4 6 3 2 2 3 6 10 10 8 10 7 3 5 2 8 11 11 13 12 13 14 9 2 4 4 7 5 8 7 14 14 13 12 7 6 10 15 16 15 15 15 15 14 15 15
6 7 6 5 5 6 8 10 12 13 13 13 14 14 14 15 13 10 7 7 6 5 6 6 3 3 4 9 3 2 2 2 5 5 4 4 5 2 2 2 1 2 3 3 3 2 3 4 5 9 4 5 6 6 7 5 6 8 9 3 8 10 10 1 4 7 6 7 9 7 10 9 15 17 11 5 1 10 13 17 20 18 16 14 14 14 14 15
8 7 7 6 4 6 7 8 12 14 13 14 15 15 15 13 7 5 5 5 1 3 6 2 4 3 5 4 6 3 5 1 4 2 3 4 4 3 3 3 2 0 1 2 2 0 2 4 4 5 7 4 5 8 9 8 8 9 8 8 7 8 7 9 6 10 10 5 8 8 9 9 11 14 12 12 12 9 13 19 22 17 15 16 14 14 14 14
8 8 8 7 6 7 8 7 10 13 15 15 15 16 11 5 1 2 5 4 3 8 5 5 4 4 6 10 3 3 3 3 4 4 1 3 3 3 5 4 4 3 3 2 1 1 2 4 6 4 5 3 7 7 7 7 7 9 10 11 11 9 10 10 6 4 9 3 10 11 10 11 12 13 16 18 17 17 18 21 22 20 18 17 13 11 11 12
9 9 8 8 8 7 7 9 10 12 13 12 15 11 5 2 2 2 3 4 5 3 4 1 5 4 6 3 4 3 2 3 1 2 2 0 3 4 6 6 4 5 4 5 2 4 4 6 2 3 6 8 6 6 5 7 9 8 8 10 9 11 10 9 7 11 3 5 7 11 11 12 13 15 20 20 18 17 17 20 20 17 15 16 13 12 11 11
9 9 8 9 10 8 7 9 10 13 13 13 14 8 3 3 1 3 6 4 2 2 3 3 4 2 9 4 7 1 2 3 1 3 2 2 3 6 4 4 4 6 7 6 4 6 4 5 3 6 5 8 7 6 7 10 9 11 12 13 12 12 13 16 13 3 5 7 10 10 14 17 15 14 16 18 19 19 19 17 17 17 17 15 12 10 9 8
8 8 8 10 10 9 9 9 11 12 14 18 11 2 1 2 4 5 3 4 3 3 4 5 5 7 4 4 5 6 2 3 3 2 4 5 2 2 1 1 7 9 6 5 6 7 4 3 3 5 9 9 9 10 11 13 14 15 14 12 13 14 12 13 14 15 13 11 12 14 14 14 14 15 16 18 21 20 18 15 16 17 15 13 9 6 6 8
9 8 8 9 9 9 9 9 11 12 15 13 3 2 3 3 3 3 5 6 6 8 8 2 7 10 13 9 3 3 2 3 4 3 4 1 6 7 5 5 5 6 5 5 7 6 5 7 7 7 11 11 11 13 15 15 15 15 11 13 14 14 14 14 14 12 8 7 9 11 15 15 13 14 17 21 20 18 17 16 14 14 12 10 7 6 8 9
8 8 7 7 8 9 9 9 9 12 13 9 9 6 2 5 5 3 5 9 11 9 10 10 11 11 11 4 5 5 3 4 3 4 3 2 3 7 6 6 7 6 8 4 3 3 3 8 9 12 15 14 13 9 9 11 12 14 13 13 12 11 14 12 14 14 5 4 11 11 14 16 18 18 19 16 14 15 15 13 11 10 10 8 8 9 11 11
8 8 7 7 8 8 8 7 9 11 15 6 6 4 2 4 3 3 4 7 3 8 11 13 5 10 10 5 4 2 4 7 5 6 3 5 6 7 7 7 7 8 7 6 3 3 7 10 11 15 14 13 7 8 10 11 13 12 11 9 10 11 13 14 13 4 2 6 9 11 13 14 17 20 17 11 9 10 10 8 9 9 8 6 8 11 12 12
8 7 7 7 6 8 8 6 8 9 6 4 2 2 3 3 2 3 3 6 11 8 9 10 10 12 10 3 3 5 9 10 8 8 8 6 7 6 6 6 8 8 6 9 8 7 8 8 15 15 11 7 9 9 10 12 11 9 9 9 10 9 9 8 2 5 5 4 11 13 14 12 16 18 12 5 5 9 3 3 5 5 8 11 13 12 12 12
7 6 6 6 6 6 6 6 9 7 1 3 3 4 2 2 1 1 3 5 7 6 5 2 4 5 4 4 3 6 9 6 5 8 5 7 7 5 6 10 9 9 10 11 14 12 11 7 5 1 3 6 12 12 11 9 9 8 10 10 10 10 9 10 10 11 11 14 3 8 11 10 8 4 4 7 5 14 1 2 3 11 12 13 13 14 13 13
6 6 6 5 4 4 4 6 5 0 2 3 2 3 2 2 2 3 4 6 5 6 4 2 1 1 2 2 2 4 7 5 3 6 3 3 7 5 6 3 6 10 10 10 12 12 14 12 4 4 5 6 8 11 12 10 9 8 10 13 12 11 12 10 10 9 7 6 6 9 10 5 1 3 7 8 9 14 3 9 13 12 13 13 14 12 11 12
4 6 6 5 3 2 2 4 2 3 3 0 4 4 2 1 2 2 3 4 9 2 0 4 2 1 1 3 2 3 2 6 4 2 2 1 6 4 3 5 4 6 5 7 7 6 7 5 0 6 9 8 8 10 12 6 8 7 4 2 4 6 6 7 8 6 5 5 0 4 6 9 4 10 12 9 10 12 8 11 13 12 10 12 11 9 10 10
5 6 6 6 4 4 3 2 3 1 4 4 4 4 3 2 1 4 3 4 7 4 3 3 2 1 2 2 2 4 6 4 2 3 4 2 3 2 5 3 3 3 1 1 2 5 6 2 2 2 6 7 6 7 8 10 6 7 4 1 1 4 5 5 4 5 8 8 11 8 8 8 10 9 5 6 11 4 7 11 13 10 10 12 12 12 12 11
2 1 5 6 7 9 4 2 3 4 2 5 5 4 4 3 2 2 3 5 4 3 2 3 3 1 3 2 4 4 4 4 4 3 3 2 3 5 6 7 5 4 7 4 7 2 3 4 3 4 6 5 7 3 5 4 6 3 2 5 5 5 6 3 5 7 7 9 8 6 9 5 6 4 4 7 6 8 8 10 10 11 12 12 13 12 11 10
4 4 2 3 7 9 3 3 2 3 4 5 4 4 3 3 3 3 4 5 2 2 2 4 1 2 4 3 4 2 3 2 2 4 2 1 3 3 5 8 6 4 6 9 9 3 2 2 6 5 4 6 4 4 3 2 8 3 1 1 0 3 5 7 7 7 7 6 11 6 10 6 10 3 4 2 4 8 8 11 10 9 11 11 10 9 9 7
5 5 5 1 4 3 2 1 6 2 4 5 4 4 4 3 3 4 6 7 5 1 2 3 4 2 5 6 5 4 4 2 2 4 6 2 4 2 1 3 4 5 7 8 11 11 0 2 2 2 7 4 5 4 3 3 3 3 2 6 7 7 7 6 5 5 5 9 10 9 15 9 7 4 3 5 5 4 8 10 9 9 10 11 10 9 6 5
6 7 8 3 5 4 3 3 6 6 5 5 5 4 3 4 5 5 10 1 2 2 1 4 3 3 5 5 3 5 3 3 5 6 5 2 5 6 2 3 2 4 4 5 8 13 8 5 2 5 5 4 2 4 2 2 2 1 3 4 7 9 7 4 3 4 6 10 3 5 9 10 4 3 2 2 4 5 4 8 10 10 10 8 8 6 5 5
6 7 9 4 1 3 7 2 4 4 6 6 4 4 4 6 6 11 5 6 4 4 3 3 3 3 4 1 2 4 3 5 5 5 4 6 5 6 8 6 4 3 5 4 4 5 5 10 8 5 3 8 5 5 4 3 4 4 4 3 5 6 5 8 4 6 7 7 4 2 3 6 12 10 12 2 6 3 8 6 9 12 11 9 7 6 5 4
5 5 8 4 4 4 3 1 4 5 6 5 2 3 6 6 10 9 9 4 1 2 3 3 3 5 2 3 4 3 2 2 7 5 1 2 4 7 8 9 1 4 8 5 7 5 5 4 8 7 1 8 7 6 4 3 7 6 5 3 3 7 7 11 8 7 10 1 5 2 3 9 10 11 12 12 6 9 9 11 11 12 11 9 7 6 5 5
3 4 2 1 3 4 1 3 5 8 7 3 3 3 4 8 8 8 5 10 2 2 5 2 2 2 2 5 3 2 4 5 6 4 4 2 4 4 6 10 7 6 5 7 9 5 9 8 6 9 4 9 11 9 6 6 8 8 6 5 5 6 5 10 6 11 9 10 5 3 4 3 3 5 6 7 12 10 10 10 11 11 11 9 7 6 5 7
3 3 3 4 3 4 3 3 5 8 5 5 5 7 9 14 5 5 6 5 2 3 2 2 1 1 6 6 3 3 3 4 2 3 4 6 7 6 8 6 10 7 4 6 5 5 10 11 1 5 4 10 10 12 3 2 3 4 1 1 4 9 6 12 9 11 9 9 9 4 5 4 8 7 9 9 11 11 11 10 10 9 8 8 6 6 7 8
0 1 2 3 3 4 7 4 3 4 4 4 7 9 16 7 4 6 3 3 5 5 3 4 5 6 8 8 4 7 3 6 4 2 5 7 7 9 6 2 5 12 7 7 4 7 4 6 7 1 3 4 2 1 6 5 6 3 4 4 4 3 7 8 8 9 9 9 15 9 12 14 10 15 10 13 12 10 9 9 8 8 7 7 7 7 7 7
2 3 3 4 5 5 7 6 5 3 4 6 7 13 9 6 9 5 1 2 1 3 3 7 7 8 7 7 5 7 5 3 5 3 6 4 6 12 10 7 2 7 11 8 8 7 8 10 3 6 9 6 4 3 2 4 4 4 5 6 3 2 2 6 11 8 11 14 11 7 13 13 9 9 7 10 10 8 8 8 8 7 7 7 7 7 7 7
3 4 4 6 6 7 7 8 7 4 4 7 13 13 2 7 6 11 3 3 1 3 8 9 6 1 7 7 6 6 6 7 4 7 7 5 6 7 2 3 3 3 5 1 4 3 5 8 7 1 3 3 2 2 6 7 4 7 6 5 3 4 6 8 5 9 11 13 10 12 16 16 14 14 8 7 11 10 8 8 7 7 6 6 6 6 5 5
4 2 3 6 8 9 7 9 6 6 3 8 11 11 8 10 4 3 2 2 2 4 8 10 10 6 8 8 3 5 7 6 6 8 6 5 8 1 2 2 2 2 2 1 4 3 3 7 8 2 2 3 2 4 10 5 3 3 3 6 4 4 8 11 9 7 4 12 10 11 12 13 9 12 13 14 11 11 10 7 6 6 6 5 4 4 4 4
6 3 5 3 7 9 8 9 6 4 4 11 8 9 0 2 7 2 0 4 3 5 6 6 6 9 6 6 5 9 3 8 6 7 9 0 5 4 3 3 3 3 3 2 3 1 6 4 11 2 4 2 5 7 10 10 6 5 5 7 5 4 2 6 4 9 11 12 12 11 12 8 10 6 7 12 11 9 10 9 7 6 5 4 3 1 2 1
3 2 1 4 7 9 10 6 7 11 11 6 7 9 8 8 4 3 3 1 1 2 1 3 6 9 5 5 7 3 3 5 5 8 5 6 6 5 4 3 5 3 2 3 2 3 3 4 11 8 8 9 11 8 13 13 13 12 7 7 8 7 8 9 12 7 7 9 11 11 15 7 4 8 6 7 7 7 7 10 8 7 6 6 4 4 2 2
6 5 3 7 9 14 12 11 8 6 6 10 11 9 6 3 3 6 3 2 4 3 2 2 3 5 6 8 10 6 4 6 9 8 6 10 8 10 2 4 5 3 0 4 2 4 2 2 5 10 11 13 13 14 5 3 2 5 6 11 10 11 7 7 12 8 8 9 8 10 10 8 4 6 6 6 5 6 6 7 8 7 7 6 5 3 3 2
6 3 4 3 9 13 10 10 8 9 10 8 2 1 3 0 4 3 6 4 3 2 2 5 8 7 9 10 9 10 11 7 7 11 10 9 12 8 4 2 4 3 3 2 5 1 6 2 4 10 10 13 17 16 17 8 6 7 10 7 5 11 11 12 11 7 8 11 12 10 13 5 2 3 4 4 4 4 5 5 7 6 5 5 5 4 4 3
4 2 2 2 6 9 12 14 13 14 10 5 6 10 7 7 7 5 7 8 6 5 8 7 7 12 10 8 7 9 7 6 5 10 9 8 7 7 3 3 0 1 2 1 3 1 4 3 2 4 6 7 9 8 8 3 1 6 8 9 9 11 12 11 6 2 5 6 15 14 17 9 3 2 2 4 4 5 6 5 5 6 6 6 5 4 3 2
5 1 0 1 3 8 15 9 10 10 14 16 12 14 13 7 6 11 9 9 8 8 4 6 9 4 8 7 10 10 8 11 6 4 6 4 4 5 4 4 5 1 5 6 7 3 2 3 2 5 6 8 8 8 6 3 1 2 3 6 3 8 11 9 10 10 15 9 15 12 13 10 2 5 6 7 6 5 6 6 3 4 4 6 5 4 2 1
7 5 6 1 3 4 5 4 4 9 11 13 15 14 15 13 7 4 8 10 11 10 11 8 2 1 8 8 8 9 10 7 9 2 3 4 3 2 3 6 5 4 3 7 2 0 1 2 5 8 10 10 11 10 13 13 10 9 8 6 9 10 10 9 10 12 14 11 12 9 11 12 9 11 11 9 5 8 6 6 9 8 8 6 5 5 4 4
3 5 7 7 3 7 5 5 7 10 10 12 8 5 15 16 11 4 8 5 8 11 9 11 9 8 7 10 11 11 13 12 10 10 11 12 10 5 5 4 5 6 5 2 4 1 2 7 10 13 14 16 17 19 18 16 16 16 15 16 16 16 10 12 12 18 12 12 16 11 19 17 14 17 15 14 7 7 8 9 9 9 9 9 8 7 8 6
5 3 4 1 4 6 10 8 8 9 13 12 11 8 12 12 12 10 5 3 1 2 6 4 11 15 14 13 10 9 10 12 12 13 12 11 11 7 7 4 3 3 3 1 3 2 4 8 10 14 14 17 18 19 19 17 16 17 18 19 19 18 17 18 18 20 18 14 18 12 17 17 17 18 19 20 19 16 11 7 7 7 7 8 7 8 8 8
2 3 1 3 4 2 4 2 10 10 14 13 8 12 14 12 11 11 7 3 5 6 11 9 11 12 14 12 9 10 10 7 8 7 2 1 2 1 3 4 4 5 2 2 3 2 3 9 9 13 13 15 18 17 17 18 18 18 19 21 21 22 24 24 23 22 22 20 20 20 24 28 21 21 22 22 6 3 2 4 5 6 7 7 7 7 8 7
4 3 3 2 3 3 1 3 7 10 14 8 9 11 12 14 15 9 4 7 6 8 10 13 12 3 4 0 8 9 11 9 2 2 0 4 3 3 7 7 8 1 4 1 1 2 4 6 6 3 5 10 14 18 17 18 18 19 18 20 23 25 26 24 23 24 24 19 21 25 23 23 18 18 9 5 4 2 3 4 4 5 6 6 7 7 7 7
3 3 4 3 4 2 3 4 8 11 11 12 12 12 10 14 16 13 6 4 6 9 6 11 3 5 2 3 6 10 7 2 0 0 1 0 6 4 1 1 5 1 3 1 4 2 4 8 5 5 10 12 10 11 12 5 4 9 8 11 18 21 22 19 17 14 17 21 23 23 18 16 12 4 3 3 2 1 3 3 3 4 5 5 6 7 7 8
0 1 1 3 2 6 5 4 7 8 12 13 13 14 12 17 16 11 10 4 3 2 6 7 5 5 5 3 7 7 2 5 3 5 4 3 2 1 3 3 3 4 3 3 2 3 3 4 3 5 9 8 8 4 4 4 9 12 14 19 18 18 18 18 18 21 21 21 19 18 17 4 2 2 3 3 2 1 1 3 3 3 3 3 6 7 7 8
Wind_Direction
27 22 21 20 19 15 12 12 7 3 1 2 356 355 353 356 353 351 352 350 347 347 345 342 341 339 338 338 337 335 324 301 265 246 230 275 99 121 102 120 137 154 181 187 156 169 174 184 190 164 194 212 157 236 121 216 232 200 221 240 251 255 262 263 261 283 304 291 301 283 342 296 293 268 180 172 238 239 265 266 271 253 245 249 260 267 206 149
19 19 15 13 12 10 7 5 4 358 356 355 356 349 349 350 349 347 347 347 345 341 342 341 336 338 335 334 330 336 316 282 276 268 250 110 122 128 119 147 145 167 191 187 179 190 188 188 185 183 192 223 125 220 148 191 190 214 246 252 260 267 298 317 284 288 293 285 299 299 291 277 276 294 288 284 277 281 280 273 269 261 248 246 254 253 240 208
17 12 12 8 2 359 358 1 360 356 353 353 352 349 346 344 344 344 343 342 341 341 338 337 336 332 333 330 329 322 313 280 265 269 63 92 126 144 143 153 162 176 195 187 199 211 223 225 178 196 213 254 164 217 192 206 185 226 258 259 258 257 267 268 282 286 280 292 286 294 296 293 282 282 286 263 278 283 272 282 282 276 279 263 252 253 242 237
14 6 5 5 356 353 354 357 357 352 352 351 347 348 344 341 340 341 339 339 337 337 338 333 330 333 324 322 326 310 275 282 276 90 87 112 139 146 159 160 170 187 218 247 214 230 250 264 177 217 230 244 198 223 216 186 202 198 225 244 266 307 295 269 278 277 280 286 288 289 295 284 279 277 257 257 281 269 270 262 269 286 292 296 297 297 295 271
7 4 1 355 352 355 348 353 355 347 348 348 347 344 344 339 338 337 340 335 336 336 335 332 329 324 327 316 313 279 283 283 95 80 86 122 140 149 151 166 174 188 216 209 198 208 215 208 192 220 244 251 231 222 236 220 209 286 239 255 269 274 259 272 283 292 284 338 286 282 281 278 303 271 254 257 261 267 275 292 297 292 294 298 298 297 295 274
6 3 357 352 348 354 348 345 351 345 344 345 346 344 337 338 338 336 336 334 332 334 332 331 328 327 321 321 301 255 277 307 138 132 27 107 129 140 157 164 180 205 212 190 196 188 197 202 204 211 223 241 246 231 240 232 173 249 249 246 253 263 275 287 289 317 274 279 275 280 279 294 280 276 271 268 256 263 266 277 282 286 291 292 292 290 281 266
360 6 356 350 346 347 346 344 343 344 344 343 342 339 336 336 335 334 329 331 329 329 329 329 329 326 326 308 265 267 253 279 193 104 113 136 128 140 143 153 176 212 204 188 196 189 203 213 217 238 247 261 261 257 257 239 183 250 272 284 285 286 270 282 285 307 264 271 272 279 291 280 279 277 285 277 268 265 268 269 275 282 287 287 284 278 271 268
297 1 15 346 342 346 345 345 342 342 344 341 338 338 335 331 330 327 328 322 324 323 327 324 329 325 339 311 258 240 222 253 87 116 107 135 138 133 144 160 178 193 202 206 192 209 207 228 225 246 261 263 301 272 282 258 229 243 263 261 268 273 279 284 282 276 269 266 275 277 272 267 271 276 290 276 276 274 268 267 271 276 279 280 279 274 269 267
286 342 359 328 329 339 345 341 340 340 339 339 337 334 331 329 325 324 321 320 317 317 317 322 316 334 304 276 269 284 257 300 48 121 148 145 144 147 161 159 190 190 204 215 216 236 225 239 247 242 279 282 295 262 251 246 269 249 254 284 300 288 279 276 280 267 257 268 266 274 267 270 273 285 271 269 272 271 265 262 268 276 278 278 271 270 269 266
332 350 338 329 341 341 339 339 336 334 334 334 333 331 328 326 322 319 317 313 310 310 304 313 317 317 321 240 251 257 331 24 89 120 140 141 142 155 192 180 180 197 208 211 218 224 215 266 293 23 309 282 265 261 282 234 272 21 302 303 293 288 288 279 272 270 264 261 260 259 274 277 284 286 272 252 270 284 265 249 269 285 285 281 273 266 267 263
348 320 334 324 343 336 335 334 332 330 330 330 329 326 325 323 319 315 313 309 304 295 296 285 345 330 265 230 255 262 60 299 34 100 134 149 151 170 184 190 189 204 215 206 223 219 242 258 58 230 234 261 357 271 209 258 348 301 306 304 284 280 275 273 267 262 257 264 247 251 266 279 279 262 258 268 268 267 259 269 272 278 285 285 282 278 273 267
317 323 311 328 336 332 330 330 329 327 326 325 324 323 321 318 315 312 308 307 297 289 273 271 254 260 273 253 248 263 2 48 108 115 126 168 148 44 16 237 202 223 222 222 219 229 279 240 225 213 251 58 259 307 230 4 281 292 302 290 288 287 283 272 266 263 245 242 146 245 277 274 258 233 246 253 262 260 264 270 277 281 278 280 282 280 276 273
266 273 288 332 329 327 325 326 325 323 321 320 320 320 319 317 312 308 306 303 299 279 273 167 182 243 274 266 251 56 318 85 100 114 113 95 96 60 20 351 302 296 305 279 269 163 201 225 229 236 249 265 276 284 81 253 250 280 263 264 285 284 277 277 266 166 176 221 141 170 283 300 297 294 296 300 316 303 291 288 291 289 287 285 283 282 280 279
257 261 278 282 311 324 325 327 327 321 316 315 318 319 318 316 312 308 305 294 297 283 219 176 250 221 239 261 86 349 67 113 122 140 134 141 165 77 89 52 346 308 352 309 41 345 211 225 243 245 355 241 255 58 270 249 229 260 283 261 268 288 277 276 201 149 250 135 170 201 265 280 289 293 300 317 62 301 295 293 289 289 289 285 279 277 280 282
253 254 256 254 277 280 294 319 332 327 317 314 317 318 316 317 315 314 311 266 188 165 108 150 220 215 220 255 90 111 278 357 186 117 124 189 175 137 161 135 92 70 55 21 47 49 219 197 218 239 247 221 286 279 273 264 261 262 279 250 239 244 268 280 189 187 256 137 206 183 260 262 273 288 302 306 303 292 288 290 287 288 289 285 282 285 287 291
247 257 260 253 262 276 292 298 313 323 322 319 318 316 314 306 319 360 37 17 121 148 154 184 183 254 306 273 123 117 212 217 145 40 49 352 245 283 120 126 114 116 167 83 58 143 208 188 226 301 268 176 238 247 269 280 253 244 237 265 271 271 286 297 277 221 256 108 192 205 272 289 277 290 297 297 296 295 290 284 284 290 290 288 293 296 295 296
250 257 260 256 263 274 290 297 303 309 312 314 318 312 315 261 160 78 94 107 128 175 218 340 148 191 265 69 115 213 130 84 277 144 94 50 330 140 141 146 153 130 120 123 165 167 149 222 100 260 238 263 255 253 268 255 269 263 239 248 253 278 295 284 308 293 100 188 264 219 250 263 278 287 286 287 288 285 278 277 284 289 288 289 295 296 296 297
251 256 260 257 263 272 277 289 297 301 310 315 312 310 291 199 170 191 158 162 132 191 233 271 241 248 232 122 266 48 67 106 75 81 64 27 285 179 168 172 134 151 145 134 149 201 169 212 177 257 236 223 228 222 236 259 281 299 303 296 292 297 302 300 300 314 256 231 263 281 271 282 289 291 291 296 292 282 274 277 287 290 287 289 297 297 303 319
251 253 257 259 262 264 268 279 294 306 313 316 290 283 152 244 247 250 215 165 205 169 197 171 202 196 310 95 101 118 91 89 144 218 129 150 158 170 159 117 184 155 177 211 156 196 169 227 192 245 248 234 218 222 234 255 276 286 294 295 297 294 293 291 292 297 308 306 298 292 290 299 302 298 292 286 281 283 287 291 286 282 284 289 296 317 332 340
223 236 245 259 260 258 263 280 301 310 320 323 300 216 209 221 196 172 203 216 241 274 313 275 238 288 298 269 157 59 111 213 179 78 121 180 160 171 168 175 149 240 209 232 142 205 156 217 202 224 245 252 254 234 245 265 283 294 291 280 278 281 280 277 279 297 60 324 289 297 298 297 294 291 281 275 281 289 291 280 277 280 283 289 303 344 355 20
227 222 233 251 261 261 272 292 304 312 314 301 294 273 333 5 319 308 346 279 259 257 261 259 247 257 262 86 157 172 239 174 243 140 139 148 246 179 167 180 179 211 214 227 159 90 216 231 234 240 255 269 290 324 319 299 287 283 283 281 278 275 276 279 294 304 50 328 293 295 300 303 301 290 278 277 280 281 278 280 280 286 299 323 355 17 32 36
235 236 231 239 254 269 270 287 308 312 298 273 304 13 81 16 354 350 294 291 246 238 236 248 267 250 256 258 81 330 78 278 189 131 140 218 167 218 156 205 189 244 130 137 143 179 208 226 238 245 257 273 284 286 281 277 277 272 268 276 281 273 279 286 280 314 92 302 291 309 303 298 291 284 292 295 266 265 275 297 302 308 329 7 39 48 43 39
229 231 237 248 263 272 284 299 300 307 301 301 359 5 43 30 3 348 298 278 268 236 227 236 222 237 251 161 164 116 255 230 249 157 171 207 154 253 166 200 218 235 166 202 224 232 243 237 238 246 263 273 265 262 265 265 256 257 256 256 255 275 291 299 289 138 281 297 296 306 298 283 270 270 270 237 250 276 286 286 319 23 39 58 57 50 48 43
223 229 242 251 257 268 296 299 290 272 280 349 8 35 32 22 340 294 265 269 311 257 220 211 275 274 254 237 107 233 212 239 223 203 143 195 196 171 208 219 237 233 226 220 231 241 250 275 72 22 262 244 263 268 265 258 259 240 241 252 264 271 275 288 304 317 309 284 281 288 283 293 277 249 209 218 288 314 273 268 113 82 75 74 68 60 51 50
213 212 225 231 250 262 277 298 263 90 61 233 109 70 75 15 338 321 295 271 206 238 93 192 222 215 96 51 202 216 203 219 155 49 140 262 182 128 237 234 239 242 240 243 247 251 258 263 119 230 221 243 254 263 253 253 268 267 247 245 257 276 289 292 307 317 306 287 114 344 325 300 70 288 272 288 306 277 61 62 80 76 71 75 70 63 58 58
216 220 223 216 208 243 265 260 110 115 256 224 76 112 104 93 312 290 291 280 282 144 260 171 193 139 2 143 132 256 122 204 50 55 10 45 343 284 67 218 210 265 288 231 253 272 289 65 11 249 260 255 245 256 264 264 261 268 281 22 267 288 294 293 296 321 299 302 123 52 287 291 259 273 267 264 263 263 96 89 71 60 60 66 67 61 56 46
201 222 225 208 170 192 238 243 76 156 233 143 123 125 135 136 202 232 267 229 263 121 145 30 250 93 282 32 266 190 205 127 132 122 191 34 236 182 256 199 137 214 4 32 305 236 192 245 132 256 248 239 252 248 247 227 254 267 40 325 356 273 273 293 303 267 269 285 273 239 219 273 299 289 242 204 250 257 106 97 85 85 70 66 63 54 45 43
98 182 218 207 190 194 288 347 200 229 42 100 115 128 129 143 153 231 241 290 277 97 97 142 44 43 283 111 267 280 35 127 167 115 13 70 275 161 229 242 238 235 166 183 246 65 201 142 187 180 202 225 234 275 61 206 231 357 25 358 322 312 308 295 280 284 285 299 295 186 212 259 260 291 146 246 239 188 132 112 95 94 89 72 61 53 45 42
38 31 11 247 202 208 282 279 270 247 82 109 116 113 116 147 233 278 287 269 106 119 333 89 241 205 129 199 188 121 181 173 335 98 132 171 270 310 213 245 256 275 172 211 249 174 143 160 174 197 204 232 228 69 4 170 251 88 302 81 257 272 257 267 273 276 281 273 270 226 191 256 286 295 218 150 244 184 135 108 86 76 78 79 76 61 50 32
32 20 354 300 194 177 221 215 239 81 125 100 117 123 123 207 226 224 206 234 37 225 125 94 213 124 174 187 189 181 212 96 48 122 172 185 144 237 32 359 279 231 234 232 244 258 198 152 47 226 220 234 90 73 56 39 70 114 226 282 267 244 248 235 242 262 272 252 260 243 190 223 287 272 234 182 224 136 123 112 117 107 89 76 66 68 57 32
32 4 345 244 186 184 158 233 217 147 126 120 127 176 235 229 245 241 234 184 315 136 117 177 157 165 183 218 211 160 265 158 144 166 144 172 164 217 224 211 234 247 249 241 244 244 214 179 199 229 236 105 167 123 96 106 88 236 270 297 310 278 220 241 242 228 264 278 314 105 189 212 255 183 124 79 59 78 27 119 125 112 95 83 78 68 58 47
28 357 345 311 264 190 203 201 104 113 122 133 147 222 225 242 210 221 220 89 253 148 203 131 133 200 197 88 279 176 186 173 167 189 202 175 186 193 196 262 162 281 261 232 264 100 223 222 216 173 190 202 171 238 151 161 162 217 233 247 275 293 285 271 218 238 246 277 107 78 106 252 238 244 265 252 198 168 88 109 118 113 107 100 90 80 64 44
14 357 332 295 309 207 298 99 134 115 126 147 200 221 224 236 247 214 234 197 254 44 150 9 106 177 165 211 221 153 24 265 146 206 183 165 255 234 228 235 223 240 283 328 320 281 266 103 187 191 129 206 198 200 176 216 188 193 216 228 252 281 276 274 278 282 273 198 140 171 145 258 267 269 234 228 103 91 92 88 90 102 108 109 100 86 80 68
351 343 336 338 262 261 35 135 136 137 127 146 207 193 246 238 233 31 246 202 219 48 60 63 92 112 234 256 71 185 225 172 177 170 199 198 196 264 228 211 198 220 222 271 265 282 285 266 202 161 223 152 196 219 246 313 158 198 206 213 246 257 263 277 274 270 269 281 296 145 291 224 285 332 78 97 102 98 96 92 95 97 101 102 105 106 92 68
320 295 271 271 241 238 147 162 156 170 157 177 178 207 219 231 237 211 217 230 213 129 127 90 238 184 237 244 199 230 266 271 160 165 217 222 242 245 253 237 192 218 225 273 221 241 244 255 100 150 8 158 184 213 245 133 247 192 185 278 252 241 247 257 272 281 294 299 281 200 208 289 279 96 123 115 100 100 97 97 97 96 102 111 102 77 62 54
240 232 167 247 211 194 161 159 175 195 199 183 197 212 224 206 203 176 262 227 225 240 140 169 199 244 256 256 168 221 118 243 141 215 240 227 259 267 247 215 179 185 201 213 265 279 230 254 102 170 62 239 199 160 194 186 256 121 161 207 263 9 248 272 265 256 270 265 258 260 263 258 259 258 188 116 102 98 103 101 97 94 91 83 74 62 54 51
191 155 206 215 229 162 169 151 164 141 148 201 203 232 237 245 242 279 185 230 360 313 241 272 228 226 251 251 234 184 191 178 235 234 247 136 263 227 233 234 160 207 221 257 270 253 280 281 133 163 235 172 31 334 330 270 299 109 226 268 46 257 312 255 271 273 263 263 267 262 270 275 279 286 92 131 111 119 113 106 103 95 89 76 65 60 54 51
174 196 264 232 194 149 164 156 150 151 154 203 219 235 16 245 218 240 100 118 98 194 248 242 263 334 264 266 257 168 166 205 167 185 258 203 272 85 211 217 117 254 250 286 267 28 359 287 273 252 303 97 112 264 263 222 270 249 273 29 283 244 241 214 237 248 252 250 269 246 262 265 262 265 252 170 156 149 130 125 116 102 89 82 76 72 64 52
180 180 244 213 146 151 152 149 148 133 149 216 223 235 237 241 283 237 69 63 17 248 240 241 265 241 261 257 264 118 174 211 243 236 248 220 240 101 286 26 146 103 38 169 248 290 124 274 272 98 9 102 194 191 257 214 172 289 348 270 231 286 256 266 256 273 247 272 276 267 261 263 257 266 277 292 148 137 138 136 113 96 89 75 72 65 51 48
170 170 240 97 148 133 144 149 137 138 197 223 215 226 30 253 221 127 98 176 206 200 226 258 236 259 236 256 281 264 205 245 231 240 232 269 259 218 187 240 297 119 78 139 258 84 275 244 273 262 65 260 245 196 240 257 241 193 214 238 217 217 359 308 288 249 263 272 262 275 258 251 270 18 44 96 127 144 153 141 128 120 108 100 93 89 85 84
239 260 200 130 147 134 140 150 166 192 208 237 236 238 208 229 163 186 157 125 129 59 324 220 231 225 245 253 228 166 227 226 222 232 228 259 244 273 47 51 19 71 72 67 271 200 247 202 252 268 260 244 254 255 275 273 272 260 222 216 230 250 254 249 256 223 238 240 255 256 260 254 267 34 43 81 91 113 122 130 130 137 138 144 156 159 171 129
180 209 179 147 158 151 152 179 207 190 203 216 219 202 221 147 175 167 144 139 220 189 64 232 259 260 232 236 251 232 240 237 235 244 238 242 233 240 164 72 58 59 301 283 307 21 353 337 270 256 247 254 269 277 293 67 350 300 282 267 265 265 259 250 265 256 266 253 278 263 282 260 42 16 42 67 86 100 115 125 129 140 149 151 146 153 148 151
215 227 41 192 177 169 165 212 200 200 212 226 94 275 161 212 184 168 169 172 163 149 204 224 219 233 244 252 254 254 238 252 235 245 244 237 256 273 73 88 94 73 350 326 284 183 69 272 260 263 269 270 268 265 263 239 233 261 260 265 252 247 236 252 261 294 267 272 267 260 256 251 63 46 66 58 84 105 114 137 138 145 151 147 154 155 163 158
196 153 146 114 205 198 184 198 211 213 218 208 206 226 200 229 206 180 204 192 181 191 215 224 246 234 251 239 242 246 239 257 238 241 249 248 253 82 27 50 310 139 243 290 280 33 277 219 274 310 298 283 267 250 243 96 329 266 269 264 269 271 261 271 267 244 266 206 251 266 265 272 104 108 97 134 179 164 164 163 161 164 166 168 164 166 149 135
170 119 53 175 164 212 208 210 218 209 215 224 220 225 222 215 221 221 204 212 221 227 230 233 242 257 235 243 256 254 253 253 268 291 285 282 268 85 68 18 11 65 39 44 70 51 276 287 330 276 262 263 255 246 254 267 345 15 339 300 278 259 263 274 263 263 264 242 240 249 267 278 106 206 189 195 198 199 196 170 184 209 195 184 175 182 163 162
189 184 177 182 218 245 265 290 281 229 220 220 232 231 234 234 201 149 208 236 230 236 237 250 44 217 242 241 241 240 239 223 226 237 229 226 200 66 102 92 58 82 74 118 72 64 267 221 231 241 251 256 262 286 307 310 292 273 273 258 259 256 263 265 278 272 259 279 270 271 280 283 257 268 256 233 199 221 186 197 199 203 200 197 193 187 198 206
303 217 160 189 121 245 239 232 229 229 227 220 230 199 234 232 236 205 182 232 221 234 238 233 231 227 222 227 236 249 249 248 228 244 245 255 267 265 132 137 102 78 131 120 180 152 249 269 256 254 251 259 265 269 274 277 277 276 275 269 268 263 250 247 244 254 265 286 268 246 255 262 263 266 273 286 278 214 232 209 203 202 199 195 192 198 200 208
210 213 184 139 225 184 208 219 215 224 236 225 234 228 242 234 221 230 193 229 29 300 224 239 243 236 242 240 239 245 244 247 245 246 250 257 261 257 256 127 106 128 180 95 154 239 282 272 272 275 273 272 274 275 277 277 275 279 277 276 272 269 266 258 253 260 268 257 267 282 287 280 280 280 287 286 288 287 288 238 201 200 180 181 188 195 204 211
328 348 38 350 193 217 216 49 195 206 230 229 242 236 239 233 234 233 233 189 205 221 225 236 232 230 233 235 233 238 235 240 236 234 238 31 70 59 268 273 125 97 113 114 186 216 258 261 262 260 269 268 272 273 275 276 279 276 272 269 267 265 262 261 266 271 267 267 273 276 274 274 279 282 279 282 293 92 121 128 146 167 180 183 200 210 212 213
187 209 166 53 14 43 355 183 200 204 226 214 231 230 239 237 238 218 108 196 219 224 217 237 236 110 92 127 219 225 231 256 308 159 360 98 295 288 274 268 276 78 83 312 341 260 252 262 300 8 299 278 277 279 280 276 275 275 279 277 270 265 266 269 276 274 278 278 271 272 273 273 274 282 308 54 67 88 121 178 194 191 190 199 209 222 223 222
330 6 335 160 195 172 96 197 201 207 220 223 231 233 242 233 239 235 204 48 239 232 223 234 178 112 96 176 229 233 243 92 85 248 83 200 259 337 7 295 90 203 316 227 260 269 256 274 285 277 275 270 262 269 278 321 311 279 270 262 259 261 267 267 265 272 274 277 280 283 279 276 291 69 40 64 106 259 239 214 208 213 212 210 227 241 243 238
91 330 252 300 228 160 150 176 207 205 223 225 226 228 231 234 239 228 229 145 65 310 262 231 176 203 215 190 224 244 80 88 86 85 89 77 19 234 281 290 283 272 266 237 238 234 239 258 260 270 269 253 262 279 298 349 311 285 247 239 249 259 258 265 268 271 268 277 280 276 275 324 91 18 16 292 114 335 272 277 246 251 245 254 263 265 264 259